User: anonymous   Login
Location: Unspecified
(50.1700°N, 6.8600°E)
Time: 20:36:11
(UTC+00:00)
Language:

Cosmos 1076 Rocket - Orbit

View from above orbital plane
View from above orbital plane
View from above satellite
View from above satellite

Ground track
Ground track

The orbit data is extracted from the following two-line orbital elements,

1 11267U 79011B   19080.79055845  .00000087  00000-0  65543-5 0  9999
2 11267  82.5275 342.7637 0015380 251.0693 108.8858 14.88926704171098
Epoch (UTC): 21 March 2019 18:58:24
Eccentricity: 0.0015380
inclination: 82.5275°
perigee height: 590 km
apogee height: 612 km
right ascension of ascending node: 342.7637°
argument of perigee: 251.0693°
revolutions per day: 14.88926704
mean anomaly at epoch: 108.8858°
orbit number at epoch: 17109

The dashed part of the orbit path shows where the satellite is in the earth's shadow,  

DLR